#timestamp,LO_Frequency,Hit,StdDev 
1617260615.6,286046952.4,P
1617260635.4,286046950.5,P
1617260655.2,286046951.1,P
1617260675.1,286046948.7,Y
1617260676.0,286046948.7,P
1617260695.8,286046996.9,N
1617260715.7,286046996.1,N
1617260735.5,286046995.9,N
1617260755.3,286046992.2,N
1617260775.2,286046990.8,N
1617260795.0,286046991.2,N
1617260795.9,286046991.2,N
1617260815.7,286046989.1,N
1617260835.6,286046989.6,N
1617260855.4,286046987.3,N
1617260875.3,286046985.4,N
1617260895.1,286046983.7,N
1617260896.0,286046983.7,N
1617260915.8,286046984.6,N
1617260935.7,286046984.4,N
1617260955.5,286046982.5,N
1617260975.3,286046981.7,N
1617260995.2,286046979.4,N
1617261015.0,286046979.8,N
1617261015.9,286046979.8,N
1617261035.8,286046980.4,N
1617261055.6,286046978.3,N
1617261075.4,286046976.7,N
1617261095.3,286046973.3,N
1617261115.1,286046972.4,N
1617261135.8,286046969.7,N
1617261155.7,286046968.2,N
1617261175.5,286046968.4,N
1617261195.4,286046965.1,Y
1617261215.2,286046983.4,P
1617261235.0,286046983.1,P
1617261235.9,286046983.1,P
1617261255.8,286046980.8,Y
1617261275.6,286046995.3,P
1617261295.5,286046993.3,N
1617261315.3,286046992.2,N
1617261335.1,286046991.5,N
1617261355.9,286046989.2,N
1617261375.7,286046989.4,N
1617261395.5,286046987.0,Y
1617261415.4,286046995.1,P
1617261435.2,286046996.1,N
1617261455.1,286046991.8,P
1617261456.0,286046991.8,Y
1617261475.8,286046998.8,P
1617261495.6,286046997.0,N
1617261515.5,286046997.3,N
1617261535.3,286046995.7,N
1617261555.1,286046994.1,Y
1617261575.9,286046995.2,P
1617261595.7,286046996.2,P
1617261615.6,286046993.6,P
1617261635.4,286046992.5,Y
1617261655.2,286046998.0,P
1617261675.1,286046997.7,N
1617261676.0,286046997.7,N
1617261695.8,286046996.2,Y
1617261715.7,286046997.5,P
1617261735.5,286046996.4,P
1617261755.3,286046994.7,P
1617261775.2,286046991.9,Y
1617261795.0,286046994.0,P
1617261795.9,286046994.0,P
1617261815.7,286046993.9,P
1617261835.6,286046990.3,Y
1617261855.4,286046995.0,P
1617261875.3,286046993.3,P
1617261895.1,286046994.2,P
1617261896.0,286046994.2,Y
1617261915.8,286046999.1,P
1617261935.7,286046997.9,N
1617261955.5,286046995.9,N
1617261975.4,286046994.8,N
1617261995.2,286046993.0,Y
1617262015.0,286046991.8,P
1617262015.9,286046991.8,P
1617262035.8,286046992.1,P
1617262055.6,286046990.9,Y
1617262075.4,286046997.5,P
1617262095.3,286046995.0,N
1617262115.1,286046995.5,N
1617262135.9,286046994.2,Y
1617262155.7,286046996.6,P
1617262175.5,286046997.0,P
1617262195.4,286046995.6,P
1617262215.2,286046996.3,Y
1617262235.1,286046997.3,P
1617262236.0,286046997.3,P
1617262255.8,286046995.6,P
1617262275.6,286046993.9,Y
1617262295.5,286046995.1,P
1617262315.3,286046995.7,P
1617262335.1,286046996.0,P
1617262355.9,286046991.7,Y
1617262375.7,286046995.2,P
1617262395.6,286046993.9,P
1617262415.4,286046994.2,P
1617262435.2,286046992.3,Y
1617262455.1,286046995.4,P
1617262456.0,286046995.4,P
1617262475.8,286046993.3,P
1617262495.7,286046994.6,Y
1617262515.5,286046996.9,P
1617262535.3,286046997.6,N
1617262555.2,286046995.8,P
1617262575.0,286046994.5,Y
1617262575.9,286046994.5,P
1617262595.7,286046996.4,P
1617262615.6,286046994.1,P
1617262635.4,286046994.4,Y
1617262655.3,286046995.4,P
1617262675.1,286046996.0,P
1617262695.8,286046994.0,P
1617262715.7,286046992.3,Y
1617262735.5,286046997.8,P
1617262755.4,286046995.0,P
1617262775.2,286046996.3,N
1617262795.0,286046994.7,Y
1617262795.9,286046994.7,P
1617262815.8,286046995.3,P
1617262835.6,286046995.9,P
1617262855.5,286046995.5,Y
1617262875.3,286046997.7,P
1617262895.1,286046993.4,P
1617262915.9,286046994.4,P
1617262935.7,286046992.7,Y
1617262955.5,286046995.7,P
1617262975.4,286046995.2,P
1617262995.2,286046991.9,P
1617263015.1,286046992.5,Y
1617263016.0,286046992.5,P
1617263035.8,286046995.6,P
1617263055.6,286046993.4,P
1617263075.5,286046994.2,Y
1617263095.3,286046999.3,P
1617263115.2,286046999.2,N
1617263135.9,286046996.5,N
1617263155.7,286046997.1,N
1617263175.6,286046995.7,N
1617263195.4,286046993.3,Y
1617263215.2,286046996.8,P
1617263235.1,286046997.9,P
1617263236.0,286046997.9,P
1617263255.8,286046996.0,Y
1617263275.7,286046997.1,P
1617263295